| time (UTC) | temp F | wind direction | speed MPH | gust MPH | rain 1hr in | rain 24hr in | rain mn in | humidity % | barometer mb |
| 20260904060421 | 60 | 321 | 0.0 | 0.0 | 0.00 | 0.01 | 0.01 | 91 | 994.6 |
| 20260904055918 | 60 | 321 | 0.0 | 0.0 | 0.00 | 0.01 | 0.01 | 91 | 994.7 |
| 20260904055419 | 60 | 321 | 0.0 | 0.0 | 0.00 | 0.01 | 0.01 | 91 | 994.7 |
| 20260904054919 | 60 | 321 | 0.0 | 0.0 | 0.00 | 0.01 | 0.01 | 91 | 994.7 |
| 20260904054418 | 60 | 321 | 0.0 | 0.0 | 0.00 | 0.01 | 0.01 | 91 | 994.8 |
| 20260904053919 | 60 | 321 | 0.0 | 0.0 | 0.00 | 0.01 | 0.01 | 91 | 994.8 |
| 20260904053418 | 60 | 321 | 0.0 | 0.0 | 0.00 | 0.01 | 0.01 | 91 | 994.8 |
| 20260904052919 | 60 | 321 | 0.0 | 0.0 | 0.00 | 0.01 | 0.01 | 91 | 994.9 |
| 20260904051918 | 60 | 321 | 0.0 | 0.0 | 0.00 | 0.01 | 0.01 | 91 | 995.0 |
| 20260904051419 | 60 | 321 | 0.0 | 0.0 | 0.00 | 0.01 | 0.01 | 91 | 995.0 |
| 20260904050419 | 60 | 321 | 0.0 | 0.0 | 0.00 | 0.01 | 0.01 | 91 | 995.1 |
| 20260904045916 | 60 | 321 | 0.0 | 0.0 | 0.00 | 0.01 | 0.01 | 91 | 995.1 |
| 20260904045415 | 60 | 321 | 0.0 | 0.0 | 0.00 | 0.01 | 0.01 | 91 | 995.1 |
| 20260904044915 | 60 | 313 | 0.0 | 0.0 | 0.00 | 0.01 | 0.01 | 91 | 995.0 |
| 20260904044415 | 60 | 309 | 0.0 | 3.0 | 0.00 | 0.01 | 0.01 | 91 | 995.1 |
| 20260904043917 | 60 | 309 | 0.0 | 3.0 | 0.00 | 0.01 | 0.01 | 91 | 995.1 |
| 20260904043411 | 60 | 305 | 1.0 | 4.0 | 0.00 | 0.01 | 0.01 | 91 | 995.1 |
| 20260904042911 | 60 | 337 | 1.0 | 4.0 | 0.00 | 0.01 | 0.01 | 91 | 995.1 |
| 20260904041411 | 61 | 338 | 0.0 | 3.0 | 0.00 | 0.01 | 0.01 | 91 | 995.0 |
| 20260904040912 | 61 | 59 | 0.0 | 1.0 | 0.00 | 0.01 | 0.01 | 91 | 994.8 |
| 20260904040412 | 61 | 59 | 0.0 | 0.0 | 0.00 | 0.01 | 0.01 | 91 | 994.7 |
| 20260904035912 | 61 | 59 | 0.0 | 0.0 | 0.00 | 0.01 | 0.01 | 90 | 994.7 |
| 20260904035413 | 61 | 59 | 0.0 | 0.0 | 0.00 | 0.01 | 0.01 | 90 | 994.6 |
| 20260904034911 | 61 | 59 | 0.0 | 0.0 | 0.00 | 0.01 | 0.01 | 90 | 994.6 |
| 20260904034412 | 61 | 59 | 0.0 | 1.0 | 0.00 | 0.01 | 0.01 | 90 | 994.6 |
| 20260904033912 | 61 | 59 | 1.0 | 2.0 | 0.00 | 0.01 | 0.01 | 90 | 994.6 |
| 20260904033412 | 61 | 59 | 1.0 | 3.0 | 0.01 | 0.01 | 0.01 | 90 | 994.5 |
| 20260904032413 | 61 | 68 | 1.0 | 3.0 | 0.01 | 0.01 | 0.01 | 90 | 994.5 |
| 20260904031913 | 61 | 44 | 0.0 | 2.0 | 0.01 | 0.01 | 0.01 | 90 | 994.5 |
| 20260904031409 | 61 | 325 | 1.0 | 4.0 | 0.01 | 0.01 | 0.01 | 90 | 994.5 |
| 20260904030409 | 62 | 323 | 0.0 | 3.0 | 0.01 | 0.01 | 0.01 | 90 | 994.3 |
| 20260904025901 | 62 | 347 | 1.0 | 3.0 | 0.01 | 0.01 | 0.01 | 90 | 994.2 |
| 20260904025355 | 62 | 335 | 1.0 | 3.0 | 0.01 | 0.01 | 0.01 | 90 | 994.4 |
| 20260904024850 | 62 | 333 | 0.0 | 1.0 | 0.01 | 0.01 | 0.01 | 90 | 994.5 |
| 20260904024343 | 62 | 333 | 1.0 | 4.0 | 0.01 | 0.01 | 0.01 | 90 | 994.5 |
| 20260904023839 | 62 | 333 | 1.0 | 4.0 | 0.01 | 0.01 | 0.01 | 90 | 994.5 |
| 20260904023339 | 62 | 216 | 1.0 | 5.0 | 0.00 | 0.00 | 0.00 | 90 | 994.5 |
| 20260904022841 | 62 | 215 | 1.0 | 5.0 | 0.00 | 0.00 | 0.00 | 90 | 994.6 |
| 20260904022340 | 62 | 270 | 1.0 | 4.0 | 0.00 | 0.00 | 0.00 | 90 | 994.6 |
| 20260904021840 | 62 | 213 | 1.0 | 4.0 | 0.00 | 0.00 | 0.00 | 90 | 994.6 |
| 20260904021339 | 62 | 258 | 3.0 | 10.0 | 0.00 | 0.00 | 0.00 | 90 | 994.7 |
| 20260904020339 | 62 | 273 | 2.0 | 8.0 | 0.00 | 0.00 | 0.00 | 90 | 994.8 |
| 20260904015839 | 63 | 275 | 2.0 | 9.0 | 0.00 | 0.00 | 0.00 | 90 | 994.7 |
| 20260904015338 | 63 | 277 | 3.0 | 9.0 | 0.00 | 0.00 | 0.00 | 89 | 994.8 |
| 20260904014838 | 63 | 273 | 3.0 | 7.0 | 0.00 | 0.00 | 0.00 | 89 | 994.9 |
| 20260904014337 | 63 | 280 | 3.0 | 10.0 | 0.00 | 0.00 | 0.00 | 89 | 994.9 |
| 20260904013836 | 64 | 273 | 3.0 | 10.0 | 0.00 | 0.00 | 0.00 | 89 | 994.9 |
| 20260904013335 | 64 | 269 | 3.0 | 8.0 | 0.00 | 0.00 | 0.00 | 88 | 994.9 |
| 20260904012835 | 64 | 244 | 3.0 | 9.0 | 0.00 | 0.00 | 0.00 | 88 | 994.8 |
| 20260904011830 | 64 | 227 | 2.0 | 8.0 | 0.00 | 0.00 | 0.00 | 88 | 994.8 |
| 20260904011324 | 64 | 219 | 2.0 | 7.0 | 0.00 | 0.00 | 0.00 | 88 | 994.8 |
| 20260904010312 | 64 | 229 | 3.0 | 8.0 | 0.00 | 0.00 | 0.00 | 88 | 995.0 |
| 20260904005806 | 64 | 199 | 3.0 | 8.0 | 0.00 | 0.00 | 0.00 | 88 | 994.9 |
| 20260904005300 | 65 | 278 | 3.0 | 9.0 | 0.00 | 0.00 | 0.00 | 88 | 994.9 |
| 20260904004754 | 65 | 272 | 4.0 | 9.0 | 0.00 | 0.00 | 0.00 | 87 | 995.0 |
| 20260904004248 | 65 | 294 | 3.0 | 7.0 | 0.00 | 0.00 | 0.00 | 87 | 994.9 |
| 20260904003742 | 65 | 246 | 3.0 | 7.0 | 0.00 | 0.00 | 0.00 | 87 | 995.0 |
| 20260904003235 | 65 | 225 | 3.0 | 11.0 | 0.00 | 0.00 | 0.00 | 87 | 995.0 |
| 20260904002224 | 64 | 293 | 1.0 | 6.0 | 0.00 | 0.00 | 0.00 | 86 | 995.0 |
| 20260904001717 | 64 | 241 | 1.0 | 8.0 | 0.00 | 0.00 | 0.00 | 86 | 995.0 |
| 20260904001211 | 64 | 285 | 2.0 | 8.0 | 0.00 | 0.00 | 0.00 | 86 | 995.0 |
| 20260904000707 | 64 | 277 | 2.0 | 6.0 | 0.00 | 0.00 | 0.00 | 86 | 995.0 |
| 20260904000200 | 64 | 224 | 2.0 | 6.0 | 0.00 | 0.00 | 0.00 | 86 | 995.0 |
| 20260903235654 | 65 | 234 | 2.0 | 4.0 | 0.00 | 0.00 | 0.00 | 86 | 995.1 |
| 20260903235148 | 65 | 202 | 2.0 | 8.0 | 0.00 | 0.00 | 0.00 | 86 | 995.1 |
| 20260903234642 | 65 | 271 | 2.0 | 8.0 | 0.00 | 0.00 | 0.00 | 86 | 995.2 |
| 20260903234136 | 65 | 292 | 2.0 | 9.0 | 0.00 | 0.00 | 0.00 | 86 | 995.3 |
| 20260903233629 | 65 | 277 | 2.0 | 9.0 | 0.00 | 0.00 | 0.00 | 86 | 995.3 |
| 20260903233124 | 65 | 267 | 2.0 | 9.0 | 0.00 | 0.00 | 0.00 | 86 | 995.3 |
| 20260903232618 | 65 | 201 | 2.0 | 6.0 | 0.00 | 0.00 | 0.00 | 85 | 995.4 |
| 20260903232111 | 65 | 221 | 3.0 | 9.0 | 0.00 | 0.00 | 0.00 | 85 | 995.5 |
| 20260903231100 | 65 | 289 | 3.0 | 11.0 | 0.00 | 0.00 | 0.00 | 84 | 995.6 |
| 20260903230552 | 65 | 273 | 3.0 | 9.0 | 0.00 | 0.00 | 0.00 | 84 | 995.7 |
| 20260903225541 | 66 | 312 | 3.0 | 9.0 | 0.00 | 0.00 | 0.00 | 84 | 995.8 |
| 20260903224529 | 66 | 200 | 3.0 | 7.0 | 0.00 | 0.00 | 0.00 | 84 | 995.8 |
| 20260903224023 | 66 | 217 | 4.0 | 10.0 | 0.00 | 0.00 | 0.00 | 84 | 995.8 |
| 20260903223518 | 66 | 234 | 3.0 | 10.0 | 0.00 | 0.00 | 0.00 | 84 | 995.9 |
| 20260903223012 | 66 | 275 | 3.0 | 10.0 | 0.00 | 0.00 | 0.00 | 83 | 995.9 |
| 20260903222506 | 66 | 259 | 3.0 | 8.0 | 0.00 | 0.00 | 0.00 | 83 | 996.0 |
| 20260903222000 | 66 | 258 | 3.0 | 10.0 | 0.00 | 0.00 | 0.00 | 82 | 996.0 |
| 20260903221453 | 67 | 210 | 3.0 | 10.0 | 0.00 | 0.00 | 0.00 | 82 | 996.1 |
| 20260903220948 | 67 | 266 | 3.0 | 9.0 | 0.00 | 0.00 | 0.00 | 82 | 996.1 |
| 20260903220442 | 67 | 244 | 3.0 | 8.0 | 0.00 | 0.00 | 0.00 | 81 | 996.2 |
| 20260903215936 | 67 | 283 | 3.0 | 8.0 | 0.00 | 0.00 | 0.00 | 82 | 996.1 |
| 20260903215430 | 67 | 238 | 4.0 | 14.0 | 0.00 | 0.00 | 0.00 | 82 | 996.2 |
| 20260903214924 | 67 | 264 | 4.0 | 14.0 | 0.00 | 0.00 | 0.00 | 81 | 996.2 |
| 20260903213911 | 67 | 242 | 3.0 | 9.0 | 0.00 | 0.00 | 0.00 | 80 | 996.3 |
| 20260903213406 | 67 | 207 | 3.0 | 9.0 | 0.00 | 0.00 | 0.00 | 80 | 996.3 |
| 20260903212900 | 67 | 257 | 3.0 | 12.0 | 0.00 | 0.00 | 0.00 | 80 | 996.3 |
| 20260903211850 | 67 | 267 | 3.0 | 11.0 | 0.00 | 0.00 | 0.00 | 80 | 996.4 |
| 20260903211342 | 67 | 259 | 3.0 | 11.0 | 0.00 | 0.00 | 0.00 | 79 | 996.5 |
| 20260903210836 | 68 | 257 | 3.0 | 11.0 | 0.00 | 0.00 | 0.00 | 79 | 996.5 |
| 20260903210330 | 68 | 222 | 3.0 | 7.0 | 0.00 | 0.00 | 0.00 | 79 | 996.5 |
| 20260903205824 | 68 | 229 | 3.0 | 9.0 | 0.00 | 0.00 | 0.00 | 79 | 996.5 |
| 20260903205318 | 68 | 173 | 3.0 | 9.0 | 0.00 | 0.00 | 0.00 | 79 | 996.4 |
| 20260903204812 | 68 | 227 | 3.0 | 9.0 | 0.00 | 0.00 | 0.00 | 78 | 996.5 |
| 20260903204306 | 68 | 257 | 3.0 | 9.0 | 0.00 | 0.00 | 0.00 | 78 | 996.5 |
| 20260903202748 | 67 | 225 | 4.0 | 8.0 | 0.00 | 0.00 | 0.00 | 79 | 996.5 |
| 20260903202241 | 67 | 265 | 4.0 | 8.0 | 0.00 | 0.00 | 0.00 | 80 | 996.5 |
| 20260903201229 | 67 | 242 | 3.0 | 8.0 | 0.00 | 0.00 | 0.00 | 80 | 996.6 |
| 20260903200730 | 66 | 249 | 3.0 | 8.0 | 0.00 | 0.00 | 0.00 | 79 | 996.8 |
| 20260903200230 | 66 | 219 | 3.0 | 8.0 | 0.00 | 0.00 | 0.00 | 79 | 996.8 |
| 20260903195729 | 66 | 240 | 3.0 | 6.0 | 0.00 | 0.00 | 0.00 | 79 | 996.8 |
| 20260903194726 | 66 | 196 | 3.0 | 7.0 | 0.00 | 0.00 | 0.00 | 78 | 997.0 |
| 20260903194227 | 66 | 255 | 3.0 | 7.0 | 0.00 | 0.00 | 0.00 | 78 | 997.0 |
| 20260903193228 | 66 | 228 | 3.0 | 8.0 | 0.00 | 0.00 | 0.00 | 77 | 997.2 |
| 20260903192725 | 67 | 238 | 3.0 | 8.0 | 0.00 | 0.00 | 0.00 | 77 | 997.2 |
| 20260903192225 | 67 | 246 | 4.0 | 8.0 | 0.00 | 0.00 | 0.00 | 77 | 997.2 |
| 20260903191723 | 67 | 189 | 4.0 | 14.0 | 0.00 | 0.00 | 0.00 | 76 | 997.2 |
| 20260903191222 | 68 | 247 | 4.0 | 14.0 | 0.00 | 0.00 | 0.00 | 75 | 997.3 |
| 20260903190722 | 68 | 235 | 4.0 | 11.0 | 0.00 | 0.00 | 0.00 | 75 | 997.3 |
| 20260903190224 | 68 | 232 | 5.0 | 9.0 | 0.00 | 0.00 | 0.00 | 75 | 997.3 |
| 20260903185221 | 68 | 214 | 4.0 | 10.0 | 0.00 | 0.00 | 0.00 | 75 | 997.4 |
| 20260903184722 | 68 | 187 | 4.0 | 13.0 | 0.00 | 0.00 | 0.00 | 74 | 997.4 |
| 20260903184222 | 68 | 178 | 4.0 | 13.0 | 0.00 | 0.00 | 0.00 | 73 | 997.5 |
| 20260903183722 | 68 | 251 | 4.0 | 9.0 | 0.00 | 0.00 | 0.00 | 73 | 997.5 |
| 20260903183221 | 68 | 187 | 4.0 | 10.0 | 0.00 | 0.00 | 0.00 | 74 | 997.5 |
| 20260903182722 | 68 | 241 | 5.0 | 12.0 | 0.00 | 0.00 | 0.00 | 74 | 997.5 |
| 20260903182221 | 68 | 240 | 5.0 | 12.0 | 0.00 | 0.00 | 0.00 | 73 | 997.6 |
| 20260903181721 | 68 | 242 | 4.0 | 9.0 | 0.00 | 0.00 | 0.00 | 74 | 997.5 |
| 20260903181220 | 68 | 242 | 4.0 | 9.0 | 0.00 | 0.00 | 0.00 | 73 | 997.5 |
| 20260903180720 | 68 | 246 | 4.0 | 12.0 | 0.00 | 0.00 | 0.00 | 73 | 997.4 |
| 20260903180221 | 68 | 213 | 4.0 | 12.0 | 0.00 | 0.00 | 0.00 | 75 | 997.5 |
| 20260903175716 | 67 | 205 | 4.0 | 11.0 | 0.00 | 0.00 | 0.00 | 75 | 997.4 |
| 20260903175216 | 67 | 209 | 5.0 | 10.0 | 0.00 | 0.00 | 0.00 | 76 | 997.3 |
| 20260903174716 | 66 | 217 | 6.0 | 10.0 | 0.00 | 0.00 | 0.00 | 77 | 997.2 |
| 20260903174216 | 66 | 197 | 5.0 | 10.0 | 0.00 | 0.00 | 0.00 | 77 | 997.2 |
| 20260903173718 | 66 | 186 | 4.0 | 9.0 | 0.00 | 0.00 | 0.00 | 77 | 997.3 |
| 20260903173218 | 65 | 240 | 5.0 | 11.0 | 0.00 | 0.00 | 0.00 | 78 | 997.3 |
| 20260903172717 | 65 | 179 | 5.0 | 12.0 | 0.00 | 0.00 | 0.00 | 79 | 997.4 |
| 20260903172216 | 64 | 190 | 5.0 | 12.0 | 0.00 | 0.00 | 0.00 | 79 | 997.3 |
| 20260903171718 | 64 | 185 | 6.0 | 11.0 | 0.00 | 0.00 | 0.00 | 80 | 997.4 |
| 20260903171214 | 64 | 184 | 7.0 | 14.0 | 0.00 | 0.00 | 0.00 | 80 | 997.4 |
| 20260903165712 | 63 | 194 | 6.0 | 11.0 | 0.00 | 0.00 | 0.00 | 80 | 997.6 |
| 20260903165212 | 63 | 181 | 7.0 | 12.0 | 0.00 | 0.00 | 0.00 | 80 | 997.6 |
| 20260903164712 | 63 | 175 | 7.0 | 12.0 | 0.00 | 0.00 | 0.00 | 81 | 997.6 |
| 20260903164212 | 63 | 178 | 6.0 | 11.0 | 0.00 | 0.00 | 0.00 | 81 | 997.5 |
| 20260903163712 | 63 | 156 | 5.0 | 11.0 | 0.00 | 0.00 | 0.00 | 82 | 997.6 |
| 20260903163212 | 63 | 204 | 6.0 | 11.0 | 0.00 | 0.00 | 0.00 | 82 | 997.6 |
| 20260903162710 | 62 | 181 | 6.0 | 11.0 | 0.00 | 0.00 | 0.00 | 82 | 997.8 |
| 20260903162211 | 62 | 199 | 5.0 | 11.0 | 0.00 | 0.00 | 0.00 | 83 | 997.7 |
| 20260903161710 | 62 | 194 | 5.0 | 10.0 | 0.00 | 0.00 | 0.00 | 83 | 997.7 |
| 20260903160712 | 62 | 204 | 4.0 | 9.0 | 0.00 | 0.00 | 0.00 | 84 | 997.8 |
| 20260903160211 | 62 | 198 | 5.0 | 11.0 | 0.00 | 0.00 | 0.00 | 84 | 997.8 |
| 20260903155710 | 62 | 197 | 4.0 | 11.0 | 0.00 | 0.00 | 0.00 | 84 | 997.9 |
| 20260903155211 | 62 | 211 | 4.0 | 8.0 | 0.00 | 0.00 | 0.00 | 84 | 997.9 |
| 20260903154712 | 62 | 176 | 3.0 | 9.0 | 0.00 | 0.00 | 0.00 | 84 | 997.9 |
| 20260903154205 | 62 | 136 | 4.0 | 10.0 | 0.00 | 0.00 | 0.00 | 84 | 997.9 |
| 20260903153704 | 61 | 173 | 5.0 | 11.0 | 0.00 | 0.00 | 0.00 | 84 | 997.8 |
| 20260903153204 | 61 | 158 | 5.0 | 11.0 | 0.00 | 0.00 | 0.00 | 84 | 997.8 |
| 20260903152705 | 61 | 233 | 4.0 | 9.0 | 0.00 | 0.00 | 0.00 | 85 | 997.9 |
| 20260903152204 | 61 | 149 | 4.0 | 10.0 | 0.00 | 0.00 | 0.00 | 85 | 997.8 |
| 20260903151704 | 61 | 135 | 4.0 | 10.0 | 0.00 | 0.00 | 0.00 | 86 | 997.8 |
| 20260903150204 | 61 | 200 | 3.0 | 10.0 | 0.00 | 0.00 | 0.00 | 87 | 997.8 |
| 20260903145704 | 61 | 164 | 4.0 | 9.0 | 0.00 | 0.00 | 0.00 | 87 | 997.7 |
| 20260903145204 | 61 | 192 | 4.0 | 9.0 | 0.00 | 0.00 | 0.00 | 88 | 997.8 |
| 20260903144704 | 61 | 153 | 4.0 | 9.0 | 0.00 | 0.00 | 0.00 | 88 | 997.8 |
| 20260903143705 | 60 | 200 | 3.0 | 7.0 | 0.00 | 0.00 | 0.00 | 88 | 997.7 |
| 20260903143204 | 61 | 192 | 3.0 | 7.0 | 0.00 | 0.00 | 0.00 | 89 | 997.6 |
| 20260903142705 | 61 | 187 | 3.0 | 6.0 | 0.00 | 0.00 | 0.00 | 89 | 997.7 |
| 20260903141659 | 60 | 216 | 3.0 | 6.0 | 0.00 | 0.00 | 0.00 | 89 | 997.6 |
| 20260903141153 | 60 | 182 | 3.0 | 6.0 | 0.00 | 0.00 | 0.00 | 89 | 997.7 |
| 20260903140647 | 60 | 214 | 3.0 | 7.0 | 0.00 | 0.00 | 0.00 | 89 | 997.6 |
| 20260903140140 | 60 | 185 | 3.0 | 7.0 | 0.00 | 0.00 | 0.00 | 89 | 997.6 |
| 20260903135635 | 60 | 167 | 3.0 | 7.0 | 0.00 | 0.00 | 0.00 | 89 | 997.6 |
| 20260903135129 | 60 | 171 | 3.0 | 7.0 | 0.00 | 0.00 | 0.00 | 89 | 997.6 |
| 20260903134623 | 60 | 191 | 3.0 | 6.0 | 0.00 | 0.00 | 0.00 | 89 | 997.7 |
| 20260903134117 | 60 | 188 | 2.0 | 5.0 | 0.00 | 0.00 | 0.00 | 89 | 997.6 |
| 20260903133611 | 60 | 168 | 2.0 | 6.0 | 0.00 | 0.00 | 0.00 | 89 | 997.6 |
| 20260903133105 | 60 | 178 | 2.0 | 6.0 | 0.00 | 0.00 | 0.00 | 89 | 997.5 |
| 20260903132558 | 60 | 190 | 2.0 | 4.0 | 0.00 | 0.00 | 0.00 | 89 | 997.4 |
| 20260903132053 | 60 | 175 | 2.0 | 4.0 | 0.00 | 0.00 | 0.00 | 89 | 997.5 |
| 20260903131546 | 61 | 192 | 1.0 | 4.0 | 0.00 | 0.00 | 0.00 | 89 | 997.5 |
| 20260903130534 | 61 | 180 | 1.0 | 4.0 | 0.00 | 0.00 | 0.00 | 89 | 997.6 |
| 20260903130029 | 61 | 198 | 1.0 | 4.0 | 0.00 | 0.00 | 0.00 | 89 | 997.6 |
| 20260903125523 | 61 | 192 | 1.0 | 4.0 | 0.00 | 0.00 | 0.00 | 89 | 997.6 |
| 20260903124511 | 61 | 176 | 1.0 | 4.0 | 0.00 | 0.00 | 0.00 | 89 | 997.6 |
| 20260903124004 | 61 | 169 | 1.0 | 4.0 | 0.00 | 0.00 | 0.00 | 89 | 997.6 |
| 20260903123459 | 61 | 165 | 1.0 | 4.0 | 0.00 | 0.00 | 0.00 | 89 | 997.7 |
| 20260903122953 | 61 | 166 | 1.0 | 4.0 | 0.00 | 0.00 | 0.00 | 89 | 997.7 |
| 20260903122447 | 61 | 163 | 1.0 | 3.0 | 0.00 | 0.00 | 0.00 | 89 | 997.7 |
| 20260903121941 | 61 | 221 | 2.0 | 5.0 | 0.00 | 0.00 | 0.00 | 89 | 997.8 |
| 20260903120929 | 61 | 196 | 2.0 | 7.0 | 0.00 | 0.00 | 0.00 | 89 | 997.7 |
| 20260903115412 | 61 | 184 | 1.0 | 4.0 | 0.00 | 0.00 | 0.00 | 89 | 997.9 |
| 20260903114904 | 61 | 246 | 1.0 | 3.0 | 0.00 | 0.00 | 0.00 | 89 | 997.9 |
| 20260903114359 | 61 | 250 | 1.0 | 4.0 | 0.00 | 0.00 | 0.00 | 89 | 997.9 |
| 20260903113853 | 61 | 207 | 1.0 | 4.0 | 0.00 | 0.00 | 0.00 | 89 | 997.9 |
| 20260903113346 | 61 | 234 | 1.0 | 3.0 | 0.00 | 0.00 | 0.00 | 89 | 998.0 |
| 20260903112841 | 61 | 192 | 1.0 | 4.0 | 0.00 | 0.00 | 0.00 | 89 | 998.1 |
| 20260903112335 | 61 | 254 | 2.0 | 6.0 | 0.00 | 0.00 | 0.00 | 89 | 998.1 |
| 20260903111830 | 61 | 247 | 2.0 | 6.0 | 0.00 | 0.00 | 0.00 | 89 | 998.2 |
| 20260903110817 | 61 | 178 | 1.0 | 4.0 | 0.00 | 0.00 | 0.00 | 89 | 998.2 |
| 20260903110310 | 61 | 254 | 1.0 | 3.0 | 0.00 | 0.00 | 0.00 | 89 | 998.3 |
| 20260903105258 | 61 | 238 | 1.0 | 3.0 | 0.00 | 0.00 | 0.00 | 89 | 998.4 |
| 20260903104753 | 61 | 252 | 1.0 | 3.0 | 0.00 | 0.00 | 0.00 | 89 | 998.3 |
| 20260903104247 | 61 | 246 | 1.0 | 4.0 | 0.00 | 0.00 | 0.00 | 89 | 998.4 |
| 20260903103238 | 61 | 224 | 1.0 | 3.0 | 0.00 | 0.00 | 0.00 | 89 | 998.5 |
| 20260903102738 | 61 | 228 | 1.0 | 4.0 | 0.00 | 0.00 | 0.00 | 89 | 998.4 |
| 20260903102239 | 61 | 239 | 2.0 | 4.0 | 0.00 | 0.00 | 0.00 | 89 | 998.5 |
| 20260903101737 | 61 | 221 | 1.0 | 3.0 | 0.00 | 0.00 | 0.00 | 89 | 998.4 |
| 20260903101238 | 60 | 250 | 1.0 | 3.0 | 0.00 | 0.00 | 0.00 | 89 | 998.5 |
| 20260903100739 | 60 | 253 | 1.0 | 3.0 | 0.00 | 0.00 | 0.00 | 89 | 998.5 |
| 20260903100237 | 60 | 252 | 2.0 | 4.0 | 0.00 | 0.00 | 0.00 | 89 | 998.5 |
| 20260903095734 | 60 | 225 | 2.0 | 5.0 | 0.00 | 0.00 | 0.00 | 89 | 998.6 |
| 20260903095234 | 60 | 232 | 2.0 | 5.0 | 0.00 | 0.00 | 0.00 | 89 | 998.7 |
| 20260903094734 | 60 | 261 | 2.0 | 4.0 | 0.00 | 0.00 | 0.00 | 89 | 998.6 |
| 20260903094232 | 60 | 250 | 2.0 | 4.0 | 0.00 | 0.00 | 0.00 | 89 | 998.6 |
| 20260903093732 | 60 | 177 | 2.0 | 4.0 | 0.00 | 0.00 | 0.00 | 89 | 998.6 |
| 20260903093229 | 60 | 247 | 2.0 | 4.0 | 0.00 | 0.00 | 0.00 | 89 | 998.7 |
| 20260903092731 | 60 | 234 | 2.0 | 5.0 | 0.00 | 0.00 | 0.00 | 89 | 998.7 |
| 20260903091730 | 60 | 221 | 1.0 | 3.0 | 0.00 | 0.00 | 0.00 | 89 | 998.8 |
| 20260903091230 | 60 | 221 | 1.0 | 3.0 | 0.00 | 0.00 | 0.00 | 89 | 998.8 |
| 20260903090725 | 60 | 240 | 1.0 | 3.0 | 0.00 | 0.00 | 0.00 | 89 | 998.8 |
| 20260903090218 | 60 | 240 | 0.0 | 3.0 | 0.00 | 0.00 | 0.00 | 89 | 998.9 |
| 20260903085712 | 60 | 238 | 0.0 | 0.0 | 0.00 | 0.00 | 0.00 | 89 | 998.9 |
| 20260903085207 | 60 | 229 | 0.0 | 0.0 | 0.00 | 0.00 | 0.00 | 89 | 998.9 |
| 20260903084701 | 60 | 229 | 0.0 | 0.0 | 0.00 | 0.00 | 0.00 | 89 | 999.0 |
| 20260903084154 | 60 | 204 | 0.0 | 3.0 | 0.00 | 0.00 | 0.00 | 89 | 999.0 |
| 20260903083648 | 60 | 211 | 1.0 | 3.0 | 0.00 | 0.00 | 0.00 | 89 | 999.0 |
| 20260903083142 | 60 | 192 | 1.0 | 4.0 | 0.00 | 0.00 | 0.00 | 89 | 999.0 |
| 20260903082637 | 60 | 188 | 0.0 | 1.0 | 0.00 | 0.00 | 0.00 | 89 | 999.1 |
| 20260903082131 | 60 | 237 | 1.0 | 4.0 | 0.00 | 0.00 | 0.00 | 89 | 999.0 |
| 20260903081118 | 60 | 175 | 0.0 | 2.0 | 0.00 | 0.00 | 0.00 | 88 | 999.0 |
| 20260903080613 | 60 | 175 | 0.0 | 3.0 | 0.00 | 0.00 | 0.00 | 88 | 998.9 |
| 20260903080109 | 60 | 175 | 0.0 | 3.0 | 0.00 | 0.00 | 0.00 | 89 | 999.0 |
| 20260903075610 | 60 | 175 | 1.0 | 3.0 | 0.00 | 0.00 | 0.00 | 88 | 999.0 |
| 20260903075109 | 60 | 175 | 1.0 | 4.0 | 0.00 | 0.00 | 0.00 | 88 | 998.8 |
| 20260903074611 | 60 | 178 | 2.0 | 4.0 | 0.00 | 0.00 | 0.00 | 88 | 998.9 |
| 20260903074110 | 60 | 186 | 2.0 | 5.0 | 0.00 | 0.00 | 0.00 | 88 | 999.0 |
| 20260903073610 | 60 | 176 | 1.0 | 5.0 | 0.00 | 0.00 | 0.00 | 88 | 998.9 |
| 20260903072104 | 60 | 175 | 0.0 | 3.0 | 0.00 | 0.00 | 0.00 | 88 | 999.0 |
| 20260903071603 | 60 | 173 | 0.0 | 3.0 | 0.00 | 0.00 | 0.00 | 88 | 999.0 |
| 20260903070605 | 60 | 282 | 0.0 | 1.0 | 0.00 | 0.00 | 0.00 | 88 | 998.9 |
| 20260903070104 | 60 | 282 | 0.0 | 3.0 | 0.00 | 0.00 | 0.00 | 88 | 999.0 |
| 20260903065605 | 60 | 288 | 1.0 | 3.0 | 0.00 | 0.00 | 0.00 | 87 | 998.9 |
| 20260903065101 | 60 | 294 | 1.0 | 3.0 | 0.00 | 0.00 | 0.00 | 87 | 998.9 |
| 20260903064100 | 60 | 254 | 0.0 | 1.0 | 0.00 | 0.00 | 0.00 | 87 | 998.9 |
| 20260903063101 | 60 | 254 | 0.0 | 0.0 | 0.00 | 0.00 | 0.00 | 87 | 999.1 |
| 20260903062600 | 60 | 254 | 0.0 | 1.0 | 0.00 | 0.00 | 0.00 | 87 | 999.1 |
| 20260903062100 | 60 | 254 | 0.0 | 1.0 | 0.00 | 0.00 | 0.00 | 87 | 999.1 |
| 20260903061600 | 60 | 254 | 0.0 | 2.0 | 0.00 | 0.00 | 0.00 | 87 | 999.2 |
| 20260903061101 | 60 | 254 | 0.0 | 2.0 | 0.00 | 0.00 | 0.00 | 87 | 999.3 |